Temperature
18 18 18 18 18 18 18 18 18 18 18 18 18 18 18 18 18 18 18 18 18 18 18 18 18 18 18 18 17 17 17 17 17 17 17 17 17 17 17 17 17 17 17
18 18 18 18 18 18 18 18 18 18 18 18 18 18 18 18 18 18 18 18 18 18 18 18 18 18 18 17 17 17 17 17 17 17 17 17 17 17 17 17 17 17 17
18 18 18 18 18 18 18 18 18 18 18 18 18 18 18 18 18 18 18 18 18 18 18 18 18 18 17 17 17 17 17 17 17 17 17 17 17 17 17 17 17 17 17
18 18 18 18 18 18 18 18 18 18 18 18 18 18 18 18 18 18 18 18 18 18 18 18 18 18 17 17 17 17 17 17 17 17 17 17 17 17 17 17 17 17 16
18 18 18 18 18 18 18 18 18 18 18 18 18 18 18 18 18 18 18 18 18 18 18 18 18 17 17 17 17 17 17 17 17 17 17 17 17 17 17 17 16 16 16
18 18 18 18 18 18 18 18 18 18 18 18 18 18 18 18 18 18 18 18 18 18 18 17 17 17 17 17 17 17 17 17 17 17 17 17 17 17 17 17 17 17 16
18 18 18 18 18 18 18 18 18 18 18 18 18 18 18 18 18 18 18 18 18 18 18 17 17 17 17 17 17 17 17 17 17 17 17 17 17 17 17 17 17 17 16
19 18 18 18 18 18 18 18 18 18 18 18 18 18 18 18 18 18 18 18 18 18 17 17 17 17 17 17 17 17 17 17 17 17 17 17 17 17 17 17 17 17 16
19 18 18 18 18 18 18 18 18 18 18 18 18 18 18 18 18 18 18 18 18 18 17 17 17 17 17 17 17 17 17 17 18 17 17 17 17 17 17 17 17 17 17
18 18 18 18 18 18 18 18 18 18 18 18 18 18 18 18 18 18 18 18 18 17 17 17 17 17 17 17 17 17 17 17 17 18 17 17 17 17 17 17 17 17 17
18 18 18 18 18 18 18 18 18 18 18 18 18 18 18 18 18 18 18 18 18 17 17 17 17 17 17 17 17 17 17 17 18 18 17 17 17 17 17 17 17 17 17
19 19 19 18 18 18 18 18 18 18 18 18 18 18 18 18 18 18 18 18 18 18 17 17 17 17 17 17 17 17 17 17 18 17 17 17 17 17 17 17 17 17 17
19 19 19 18 18 18 18 18 18 18 18 18 18 18 18 18 18 18 18 18 18 18 17 17 17 17 17 17 17 17 17 17 17 17 17 17 17 17 17 17 17 17 17
19 19 19 18 18 18 18 18 18 18 18 18 18 18 18 18 18 18 18 18 18 18 17 17 17 17 17 17 17 17 17 18 17 17 17 17 17 17 17 17 17 17 17
19 19 19 19 19 18 18 18 18 18 18 18 18 18 18 18 18 18 18 18 18 18 18 18 17 17 17 17 17 17 17 17 17 17 17 17 17 17 17 17 17 17 17
19 19 19 19 19 18 18 18 18 18 18 18 18 18 18 18 18 18 18 18 18 17 17 17 17 17 17 17 17 17 17 17 17 17 17 17 17 17 17 17 17 17 17
19 19 19 19 19 18 18 18 18 18 18 18 18 18 18 18 18 18 18 18 18 18 17 17 17 18 17 17 17 17 17 17 17 17 17 17 17 17 17 17 17 17 16
20 19 19 19 19 19 18 18 18 18 18 18 18 18 18 18 18 18 18 18 18 17 18 18 18 18 17 17 17 17 17 17 17 17 17 17 17 17 17 17 16 16 16
20 20 19 19 19 19 18 18 18 18 18 18 18 18 18 18 18 18 18 18 18 18 17 17 18 18 17 17 17 17 17 17 17 17 17 17 17 17 17 17 16 16 16
20 20 19 19 19 19 18 18 18 18 18 18 18 18 18 18 18 18 18 18 18 18 18 18 17 17 17 17 17 17 17 17 17 17 17 17 17 17 17 16 16 16 16
20 20 20 19 19 19 19 18 18 18 18 18 18 18 18 18 18 18 18 18 18 18 18 18 18 17 17 17 17 17 17 17 17 17 17 16 16 16 16 16 16 16 16
21 20 20 20 19 19 19 19 19 19 19 18 18 18 18 18 18 18 18 18 18 18 18 18 18 18 17 17 17 17 16 16 17 17 16 16 16 16 16 16 16 16 16
21 21 20 20 20 19 19 19 19 19 19 19 18 18 18 18 18 18 18 18 18 18 18 18 18 18 17 17 17 17 16 16 16 16 16 16 16 16 16 16 16 16 15
21 21 20 20 20 20 19 19 19 19 19 19 19 18 18 18 18 18 18 18 18 18 18 18 18 17 17 17 17 17 17 17 16 16 16 16 16 16 16 15 15 15 15
22 21 21 20 20 20 19 19 19 19 19 19 19 19 18 18 18 18 18 18 18 18 18 18 17 17 17 17 17 17 17 17 16 16 15 15 15 15 15 15 15 15 15
22 21 21 21 20 20 20 19 19 19 19 19 19 19 18 18 18 18 18 18 18 18 18 18 17 17 17 17 17 17 17 16 16 16 16 15 15 15 15 15 15 15 15
Wind_Speed
2 4 10 13 14 16 17 17 18 18 18 18 18 18 18 19 19 18 18 18 18 19 19 19 18 18 18 18 18 18 18 18 18 17 17 17 17 17 17 17 16 15 17
3 5 10 12 14 15 16 17 17 18 18 18 18 18 18 18 18 18 18 18 18 19 19 18 18 18 18 18 18 18 17 17 17 17 17 16 16 16 16 15 15 14 16
4 6 9 12 13 14 15 16 17 17 17 17 17 18 18 18 19 18 18 18 18 18 18 18 18 18 18 17 17 17 16 16 16 16 15 13 13 15 15 15 15 15 15
5 6 9 12 13 14 14 15 16 16 17 16 16 17 17 17 18 18 18 18 17 18 18 18 18 17 17 16 15 15 15 15 15 14 12 11 11 13 14 15 15 15 15
5 6 9 12 12 13 14 14 15 15 16 16 16 16 16 16 17 17 17 17 16 17 17 17 17 16 15 15 14 14 14 13 13 12 10 10 10 12 13 14 14 14 14
5 6 9 11 12 13 13 13 14 14 14 15 15 15 15 15 16 16 16 15 15 15 15 15 15 14 14 13 13 12 12 12 11 10 9 9 9 12 13 13 13 13 13
5 6 8 11 11 12 12 12 13 13 14 14 14 14 14 14 14 14 14 14 14 14 14 14 13 13 12 12 11 10 10 11 10 9 8 8 8 11 11 12 12 12 12
5 5 7 10 11 11 11 12 12 12 13 13 13 13 13 12 12 12 12 12 12 12 12 12 11 11 11 10 9 9 9 10 10 9 8 7 8 10 10 11 11 11 11
5 5 5 7 8 9 10 11 11 11 11 12 12 11 11 11 11 10 10 10 10 10 10 9 9 9 9 9 8 8 8 9 9 8 7 7 8 9 10 10 10 10 10
4 4 4 6 7 7 7 9 10 10 9 10 10 10 9 9 9 9 8 8 8 8 8 8 7 8 8 7 7 6 7 8 8 7 6 7 8 9 9 9 9 9 9
3 2 3 4 5 5 5 6 7 7 7 7 7 8 8 7 7 6 6 6 6 6 6 6 6 6 6 5 5 5 6 6 6 6 6 8 9 9 8 8 8 8 8
3 2 2 3 3 3 4 5 5 5 6 6 5 6 6 5 4 4 5 4 4 4 4 5 5 4 4 4 3 4 4 5 5 5 6 8 9 9 8 8 8 8 8
4 3 3 2 2 2 2 3 3 4 4 4 4 4 4 3 3 4 4 4 4 4 4 4 5 4 2 2 2 2 3 4 4 4 6 8 9 9 9 8 8 8 7
5 5 3 3 3 2 2 2 2 2 2 1 1 1 2 1 1 2 2 3 3 2 2 2 3 3 2 2 2 2 3 3 4 4 6 8 8 9 9 8 8 7 8
6 6 5 4 4 3 3 2 2 2 2 2 2 2 2 1 0 1 1 1 1 1 1 1 2 2 2 1 1 2 2 3 4 4 5 7 8 8 8 8 8 8 8
7 6 5 5 4 4 3 3 2 3 3 3 3 3 4 3 2 1 1 1 2 1 1 0 1 1 1 0 0 1 1 2 3 4 4 4 6 7 8 8 8 8 8
7 6 5 5 5 4 4 4 3 4 4 3 3 4 5 5 5 3 1 1 2 1 1 1 1 1 0 1 1 1 1 2 2 3 3 3 4 6 6 6 6 6 7
6 6 5 5 5 4 4 3 3 4 4 4 4 4 5 6 5 4 2 2 2 1 0 0 0 1 1 1 1 1 1 1 2 2 3 3 2 3 4 5 6 5 6
7 6 5 4 5 4 3 2 2 3 3 3 4 3 4 5 5 4 3 3 2 1 1 1 0 1 1 1 1 1 1 0 1 2 2 2 2 2 3 4 5 5 6
6 5 5 4 4 3 2 1 0 0 1 1 2 3 4 4 5 4 3 3 2 2 1 1 1 1 1 1 1 2 1 1 1 1 1 1 1 2 2 2 3 4 4
6 5 5 5 4 3 2 1 1 1 1 1 2 3 3 4 4 4 3 2 2 2 2 2 2 2 1 2 2 1 2 2 1 0 0 1 1 1 1 1 2 2 3
8 7 6 5 5 4 3 2 2 2 1 1 1 1 3 4 4 4 4 3 3 2 2 2 2 2 1 2 2 1 1 2 2 1 1 1 0 1 0 1 2 2 2
9 8 8 6 6 5 4 2 1 2 1 1 1 1 2 3 3 3 3 3 3 3 3 3 3 3 2 2 2 3 2 2 0 2 2 2 1 1 1 1 1 1 2
10 8 7 6 5 5 5 4 4 3 2 2 2 2 2 2 2 2 2 2 2 2 3 3 3 3 3 3 2 2 2 3 2 0 1 2 2 2 1 2 2 2 1
9 8 7 6 5 5 5 5 5 3 3 1 1 1 2 2 2 2 2 2 2 2 3 3 3 3 3 3 3 2 2 1 2 2 1 0 1 2 1 2 2 2 2
8 7 7 6 5 5 5 5 5 5 4 2 2 2 2 2 2 2 2 2 2 2 2 2 2 3 3 2 2 2 2 2 3 3 3 2 1 1 2 2 2 2 2
Wind_Direction
40 72 87 90 90 91 91 91 92 94 95 96 96 98 100 102 103 101 101 100 99 99 98 99 100 101 101 103 104 105 105 107 108 109 108 107 107 108 109 109 108 109 111
102 91 94 94 93 93 94 93 93 95 96 97 97 96 97 100 104 102 100 99 99 99 99 100 100 101 102 102 103 104 105 106 108 109 108 107 108 110 111 111 111 113 113
89 91 97 96 94 94 95 95 94 95 96 96 97 97 95 97 100 99 100 98 99 100 100 101 101 102 102 103 104 104 105 106 106 105 103 103 109 112 114 117 116 113 113
102 99 103 101 98 97 97 97 97 97 98 98 98 98 97 97 99 100 100 99 100 101 101 102 102 101 101 103 105 105 105 105 105 103 99 101 109 114 117 119 119 118 115
103 104 111 106 103 101 98 97 98 99 100 100 98 98 99 98 99 99 100 101 101 102 102 102 102 101 100 101 104 105 107 108 109 105 101 100 107 117 118 122 121 120 118
102 108 113 108 105 104 103 101 101 101 102 102 101 100 100 99 98 99 100 101 101 101 101 101 102 101 99 100 103 108 111 114 112 110 107 109 115 120 122 125 124 122 122
104 102 111 112 109 108 106 105 104 104 103 102 102 101 102 100 98 99 101 101 101 101 102 101 101 100 99 100 103 109 115 118 116 116 116 118 124 128 128 128 127 127 126
105 101 112 116 114 110 107 105 104 104 103 103 102 102 101 100 99 98 100 101 101 100 101 102 102 101 98 99 102 107 115 121 120 121 123 128 135 134 134 133 133 134 134
94 94 91 103 110 111 109 108 107 106 104 104 103 101 100 100 100 98 98 99 99 97 97 99 101 99 97 98 103 110 118 126 124 128 136 139 144 144 142 140 138 138 140
84 82 81 84 92 96 104 110 110 107 106 105 104 102 98 95 93 94 93 96 96 93 92 95 96 96 93 94 102 115 123 128 130 138 145 154 157 156 152 151 150 149 148
118 83 88 90 92 96 102 105 104 103 98 96 95 94 86 77 76 80 88 94 94 89 86 88 90 88 87 89 99 117 121 132 143 151 160 166 167 167 164 163 163 163 161
170 161 128 114 105 100 102 93 83 77 74 75 75 77 81 78 72 70 63 70 72 70 68 68 63 71 74 73 82 105 130 146 154 164 175 176 176 176 176 175 174 172 171
177 179 171 148 134 122 94 97 84 74 70 70 72 79 79 72 60 50 36 27 31 38 38 33 35 39 54 76 95 117 147 158 169 181 186 187 188 187 185 184 183 182 181
174 194 191 169 159 164 140 117 111 102 92 90 86 97 100 77 49 32 31 21 23 29 33 32 31 20 37 69 128 148 161 172 185 194 197 196 196 196 195 195 194 194 196
184 195 193 176 176 172 160 176 170 181 187 186 177 166 164 155 85 34 10 349 327 342 22 35 33 19 23 31 107 164 174 182 185 194 200 201 199 200 202 204 205 206 208
187 191 182 178 185 176 173 183 194 201 205 206 206 204 198 192 180 184 259 291 290 287 292 23 45 7 357 27 8 158 185 178 182 190 200 207 209 208 210 212 214 215 218
184 180 178 183 183 180 188 196 194 202 200 206 217 219 210 202 193 192 220 275 274 264 280 24 32 32 7 63 70 112 137 165 173 184 195 205 220 222 220 219 224 224 227
170 171 181 183 173 181 182 192 191 197 196 209 215 215 212 205 197 192 204 245 250 236 206 62 21 43 33 58 59 35 85 142 181 183 184 192 206 225 231 232 237 239 240
173 172 176 176 171 181 178 182 192 193 196 212 217 214 212 203 199 197 210 228 212 169 203 229 151 126 91 74 76 43 30 133 173 172 179 191 197 212 235 245 244 246 248
170 171 174 171 171 163 139 113 92 105 213 219 231 233 223 213 210 202 211 222 190 168 195 188 165 129 134 124 93 67 40 50 94 130 180 169 185 207 222 245 256 254 251
172 177 181 181 179 157 142 152 164 221 240 240 237 242 234 225 215 202 208 214 197 194 204 184 161 153 155 133 103 60 26 42 71 103 137 128 157 205 202 230 249 260 266
185 189 190 193 189 184 176 169 176 181 205 211 249 267 246 233 222 212 204 210 205 200 207 188 166 164 183 163 151 141 338 5 31 23 90 131 156 74 62 267 250 256 264
192 194 196 197 195 193 175 138 105 77 38 30 324 290 274 250 234 223 215 210 203 197 214 217 192 185 199 203 178 165 174 217 337 18 38 59 66 68 42 34 18 318 281
197 193 194 193 190 190 173 167 168 175 200 224 227 247 283 275 262 243 228 219 215 205 216 228 210 205 190 206 206 211 202 167 170 153 31 45 58 53 30 25 11 0 336
189 186 189 185 189 189 183 182 181 192 202 207 213 241 276 287 276 263 235 213 218 220 224 226 214 202 201 205 198 187 194 192 183 189 213 107 58 50 45 31 20 18 14
184 183 179 183 197 191 186 188 189 193 195 203 222 236 260 276 283 268 235 213 223 225 229 227 216 203 205 202 194 186 185 183 189 188 206 207 183 34 47 43 25 19 23
Height
1524 1523 1523 1523 1523 1523 1523 1523 1523 1524 1524 1525 1525 1526 1526 1527 1528 1529 1530 1531 1532 1532 1534 1535 1537 1538 1540 1541 1542 1543 1545 1546 1547 1548 1549 1551 1552 1553 1554 1555 1556 1557 1559
1526 1526 1526 1526 1526 1526 1526 1526 1527 1527 1528 1528 1529 1529 1530 1530 1531 1532 1533 1535 1535 1536 1537 1538 1540 1541 1543 1544 1545 1546 1547 1549 1550 1551 1552 1553 1554 1555 1556 1557 1558 1559 1561
1528 1528 1529 1529 1529 1529 1530 1530 1530 1531 1531 1532 1532 1533 1533 1534 1535 1535 1537 1538 1539 1539 1540 1542 1543 1544 1545 1547 1548 1549 1550 1551 1552 1553 1554 1555 1557 1558 1558 1559 1561 1562 1563
1530 1531 1531 1532 1532 1533 1533 1533 1534 1534 1535 1536 1536 1537 1537 1538 1538 1539 1540 1541 1542 1543 1544 1545 1546 1547 1549 1550 1551 1552 1553 1554 1555 1556 1557 1558 1559 1560 1561 1562 1563 1564 1565
1532 1533 1534 1535 1535 1536 1536 1537 1537 1538 1538 1539 1540 1540 1541 1542 1542 1543 1544 1545 1545 1546 1547 1548 1549 1551 1552 1553 1554 1555 1556 1557 1557 1558 1559 1560 1561 1562 1562 1563 1564 1566 1567
1534 1536 1537 1538 1539 1539 1540 1540 1540 1541 1542 1542 1543 1544 1545 1545 1546 1546 1547 1548 1549 1550 1551 1552 1553 1554 1555 1556 1557 1558 1558 1559 1560 1560 1561 1562 1563 1564 1564 1565 1566 1567 1568
1537 1538 1540 1540 1541 1542 1543 1543 1544 1544 1545 1546 1546 1547 1548 1549 1549 1550 1550 1551 1552 1553 1554 1555 1556 1557 1558 1559 1559 1560 1561 1562 1562 1563 1563 1564 1565 1566 1566 1567 1568 1569 1570
1540 1541 1542 1543 1544 1545 1545 1546 1547 1547 1548 1549 1549 1550 1551 1552 1552 1553 1554 1554 1555 1556 1557 1558 1559 1560 1561 1561 1562 1563 1563 1564 1564 1565 1566 1566 1567 1568 1568 1569 1570 1571 1572
1542 1543 1544 1545 1546 1547 1548 1549 1549 1550 1551 1552 1552 1553 1553 1554 1555 1556 1557 1557 1558 1559 1560 1561 1561 1562 1563 1564 1564 1565 1565 1566 1567 1567 1567 1568 1569 1569 1570 1571 1572 1572 1573
1545 1546 1547 1548 1549 1550 1550 1551 1552 1553 1554 1554 1555 1556 1556 1557 1557 1558 1559 1560 1561 1561 1562 1563 1564 1565 1565 1566 1566 1567 1567 1568 1568 1569 1569 1570 1570 1571 1571 1572 1573 1574 1574
1547 1548 1549 1550 1551 1552 1553 1554 1554 1555 1556 1557 1558 1558 1559 1559 1560 1560 1561 1562 1563 1564 1564 1565 1566 1567 1567 1568 1568 1568 1569 1569 1570 1570 1571 1571 1571 1572 1572 1573 1574 1575 1575
1548 1550 1551 1552 1553 1554 1555 1556 1557 1557 1558 1559 1560 1560 1561 1562 1562 1563 1563 1564 1565 1566 1566 1567 1568 1568 1569 1569 1569 1570 1570 1571 1571 1571 1572 1572 1572 1573 1573 1574 1575 1575 1576
1550 1551 1553 1554 1555 1556 1557 1558 1559 1560 1560 1561 1562 1563 1563 1564 1565 1565 1566 1566 1567 1567 1568 1569 1569 1570 1570 1570 1571 1571 1572 1572 1572 1572 1573 1573 1573 1574 1574 1575 1575 1576 1576
1551 1552 1554 1555 1557 1558 1559 1560 1561 1562 1562 1563 1564 1565 1565 1566 1567 1567 1568 1568 1568 1569 1569 1570 1570 1571 1571 1571 1572 1572 1572 1573 1573 1573 1573 1574 1574 1574 1574 1575 1575 1576 1576
1552 1553 1555 1557 1558 1559 1561 1562 1563 1563 1564 1565 1566 1566 1567 1568 1568 1569 1569 1569 1569 1570 1570 1570 1571 1571 1571 1572 1572 1572 1573 1573 1573 1573 1574 1574 1574 1574 1574 1575 1575 1575 1576
1552 1554 1556 1558 1559 1561 1562 1563 1564 1565 1565 1566 1567 1568 1568 1569 1569 1570 1570 1570 1570 1571 1571 1571 1571 1571 1572 1572 1572 1573 1573 1573 1573 1573 1573 1574 1574 1574 1574 1574 1575 1574 1575
1553 1555 1557 1558 1560 1561 1562 1564 1564 1565 1566 1567 1568 1568 1569 1570 1570 1570 1570 1571 1571 1571 1571 1571 1571 1571 1572 1572 1572 1572 1572 1573 1573 1573 1573 1573 1573 1573 1574 1574 1574 1574 1574
1554 1556 1557 1559 1560 1561 1563 1564 1565 1566 1567 1567 1568 1569 1570 1570 1570 1570 1570 1570 1571 1571 1571 1571 1571 1571 1571 1571 1571 1572 1572 1572 1572 1572 1572 1572 1572 1572 1572 1573 1573 1572 1572
1554 1556 1558 1559 1560 1562 1563 1564 1565 1566 1566 1567 1568 1569 1570 1570 1570 1570 1570 1570 1570 1570 1570 1571 1570 1571 1571 1571 1571 1571 1571 1571 1571 1571 1571 1571 1571 1571 1571 1571 1571 1571 1570
1555 1556 1557 1559 1560 1561 1562 1563 1564 1565 1566 1567 1568 1568 1569 1569 1569 1570 1569 1569 1569 1569 1569 1570 1569 1570 1570 1570 1570 1569 1569 1570 1570 1570 1569 1569 1569 1569 1569 1569 1569 1569 1569
1554 1556 1557 1558 1559 1561 1562 1563 1564 1565 1566 1566 1567 1567 1568 1568 1569 1569 1569 1569 1569 1568 1568 1568 1568 1568 1568 1568 1568 1568 1568 1568 1568 1568 1568 1568 1568 1568 1567 1567 1567 1567 1567
1553 1554 1556 1558 1559 1560 1561 1562 1563 1564 1565 1565 1566 1566 1567 1567 1567 1567 1567 1567 1567 1567 1567 1567 1566 1566 1566 1567 1567 1567 1567 1568 1566 1566 1566 1566 1566 1566 1566 1566 1565 1565 1565
1551 1553 1554 1556 1558 1559 1560 1561 1562 1563 1564 1564 1565 1565 1565 1566 1566 1566 1566 1566 1566 1565 1565 1565 1565 1564 1564 1565 1565 1566 1565 1565 1565 1565 1565 1565 1565 1565 1564 1564 1564 1563 1563
1549 1551 1553 1555 1557 1558 1559 1560 1560 1561 1562 1563 1563 1564 1564 1564 1564 1564 1564 1563 1563 1563 1563 1563 1563 1563 1563 1562 1563 1563 1564 1563 1563 1563 1564 1563 1563 1563 1563 1562 1562 1562 1561
1547 1549 1551 1553 1555 1556 1557 1558 1559 1559 1560 1561 1562 1562 1562 1562 1562 1562 1561 1561 1561 1561 1561 1561 1561 1561 1561 1561 1561 1561 1561 1561 1561 1561 1561 1562 1562 1562 1561 1561 1561 1560 1560
1545 1547 1549 1551 1553 1554 1555 1556 1557 1558 1558 1559 1559 1560 1559 1559 1560 1560 1559 1559 1559 1559 1559 1559 1558 1558 1558 1558 1558 1558 1558 1558 1558 1558 1558 1558 1559 1560 1560 1559 1559 1559 1558